Theta_e
350 350 349 348 348 348 347 344 341 341 341 342 343 342 340 340 341 343 345 346 347 347 348 346 346 347 347 346 345 346 346 346 347 344 346 345 347 346 343 347 346 345 345
349 349 350 350 348 346 346 344 343 344 343 342 341 342 342 341 342 342 344 346 346 345 346 346 345 345 347 345 344 345 346 345 345 346 345 346 344 345 344 344 344 347 348
347 346 344 340 338 335 333 332 333 333 337 344 344 342 341 339 338 339 340 343 346 345 345 346 345 345 345 344 343 346 346 345 346 346 343 342 344 347 346 347 346 347 347
328 327 329 328 329 327 326 326 326 327 327 329 339 345 345 344 344 343 344 346 342 343 341 342 343 343 345 345 346 345 345 346 346 345 344 343 344 347 346 347 346 346 345
327 329 330 332 331 331 330 328 326 327 328 328 329 332 342 348 347 347 344 342 344 341 342 343 342 341 342 344 345 345 345 344 345 344 344 342 343 343 343 344 345 344 345
334 333 335 335 335 337 337 334 330 328 331 333 332 331 336 336 337 336 337 345 346 343 342 343 344 340 341 339 341 344 345 346 344 344 344 341 342 343 345 343 344 344 345
337 336 339 337 339 339 339 336 331 330 330 330 332 331 330 335 337 332 329 328 330 334 337 337 340 344 341 341 341 340 343 344 342 342 344 344 343 343 343 344 343 343 343
339 340 340 340 341 341 339 334 332 331 331 329 328 328 328 327 328 327 327 326 328 328 329 329 330 336 343 343 342 341 339 338 340 344 346 346 345 345 345 344 344 345 344
340 341 342 342 340 335 331 331 330 328 325 324 324 326 327 326 327 334 335 330 331 330 330 335 335 331 335 337 340 342 341 340 341 341 340 339 341 344 345 345 346 344 344
339 339 338 334 332 331 332 332 331 327 328 329 330 329 330 331 331 333 335 337 336 335 334 335 335 336 335 333 333 335 334 333 335 338 341 343 343 344 345 346 346 345 343
336 336 335 332 332 332 331 330 329 328 327 328 328 329 329 329 331 332 334 335 332 331 332 332 333 335 335 336 334 334 334 334 334 334 334 336 342 343 342 343 344 342 343
336 335 334 331 330 330 329 330 330 329 327 327 327 327 326 329 330 330 331 331 332 332 332 331 330 333 334 336 337 337 336 335 334 334 333 333 332 332 333 336 341 343 342
333 333 333 332 331 330 330 330 330 330 329 328 327 327 325 322 321 328 331 330 331 330 330 330 330 330 330 337 338 338 337 335 332 334 333 332 330 328 329 332 336 336 343
333 332 332 331 330 330 330 329 330 330 329 328 325 324 325 326 324 325 325 328 330 331 330 329 329 328 327 327 333 337 335 336 336 334 331 328 327 326 324 328 335 338 338
329 327 325 323 321 320 320 320 323 326 327 326 324 325 327 325 323 324 326 329 330 330 330 330 329 329 328 329 328 328 328 328 327 327 328 327 326 325 324 327 333 342 343
320 316 316 317 318 317 318 318 318 319 321 322 322 322 322 321 321 322 326 327 328 330 330 330 330 329 329 329 328 328 328 329 329 329 330 328 328 327 329 327 335 337 341
317 317 317 317 317 316 316 316 317 318 318 318 319 320 320 320 321 321 326 324 326 329 329 329 330 331 331 331 331 330 330 330 329 329 330 329 328 328 330 329 335 336 339
316 316 316 316 315 315 314 314 315 315 316 317 319 319 319 320 321 324 324 323 323 325 326 327 327 328 329 330 330 330 330 330 329 330 330 329 330 329 329 329 334 336 338
315 316 315 315 314 311 312 312 312 312 312 314 316 318 318 320 322 323 323 323 321 320 321 323 324 325 327 329 329 330 329 329 329 329 330 330 331 332 331 329 334 335 337
314 314 312 311 310 311 310 311 311 311 311 312 314 316 318 319 319 320 321 320 319 319 319 320 321 322 324 325 326 328 328 328 329 330 331 331 331 332 332 330 334 334 335
313 313 312 311 311 311 311 311 310 310 311 312 313 314 315 316 317 317 317 318 318 317 318 320 322 323 324 325 324 325 326 328 329 331 331 331 331 331 333 331 334 334 335
306 307 309 310 311 311 310 310 309 308 308 308 310 311 313 313 315 315 315 315 317 318 321 322 323 324 324 325 326 326 326 326 328 329 330 331 332 332 332 333 334 335 335
303 303 303 307 308 309 308 307 307 306 306 306 306 308 309 310 311 312 314 314 316 318 320 321 323 324 325 325 325 327 328 327 327 328 329 331 332 331 331 332 332 332 335
305 303 303 304 306 306 307 306 304 305 305 305 305 306 306 307 309 311 312 314 316 318 319 321 322 322 323 324 326 327 330 329 329 329 329 331 332 331 332 332 332 332 335
307 305 303 303 304 304 305 306 303 303 304 304 304 304 305 306 307 309 311 313 315 317 319 321 322 322 323 323 324 326 326 328 329 330 331 331 331 332 332 332 332 334 334
308 308 305 303 302 303 306 306 305 304 304 304 304 304 304 304 305 306 309 311 314 317 318 319 321 320 321 323 324 325 326 326 328 330 331 331 331 332 332 332 332 333 334
Wind_Speed
3 5 5 8 13 12 12 12 11 11 10 8 9 9 12 16 12 16 17 15 16 14 14 18 21 19 19 21 19 22 25 23 24 24 18 15 16 13 12 13 12 13 14
4 6 8 9 11 10 11 11 11 10 11 10 8 5 3 10 14 13 10 10 13 14 12 14 15 18 24 23 20 20 24 23 25 24 21 18 17 15 9 11 14 16 14
5 9 8 7 9 10 11 12 11 12 12 8 6 5 9 7 5 5 7 12 10 13 11 10 15 16 19 25 22 20 19 22 25 25 22 19 15 13 16 13 15 19 18
8 9 10 11 11 12 14 15 15 15 14 10 6 3 5 9 11 12 11 10 7 6 4 10 13 16 14 19 22 21 23 24 25 25 23 18 17 13 15 20 18 17 15
8 10 10 10 11 12 14 15 16 15 14 13 11 6 5 6 7 8 12 10 10 9 10 15 16 14 14 16 18 21 21 23 25 25 25 22 20 19 20 15 17 17 17
5 7 8 9 9 11 12 14 15 15 14 12 12 12 10 7 5 5 6 6 10 13 15 17 17 16 14 10 10 13 17 18 19 22 24 24 22 19 17 18 19 18 18
5 6 8 8 10 12 12 13 15 16 16 15 14 13 12 10 11 13 12 11 11 12 14 16 18 18 17 17 15 13 16 18 22 23 27 25 24 22 19 19 20 21 21
7 9 11 13 15 13 14 17 17 18 20 21 21 21 21 18 16 18 19 18 17 15 15 14 15 14 18 20 20 20 19 18 19 20 23 24 25 23 24 24 20 19 20
13 16 16 14 10 14 20 19 20 24 25 23 21 19 18 18 15 13 16 17 17 16 13 11 11 14 12 15 21 23 23 24 20 20 21 23 23 24 24 25 25 23 22
11 7 8 11 16 20 18 20 26 26 20 17 14 13 14 15 12 12 12 13 13 12 12 12 12 13 12 13 17 18 19 17 16 19 22 22 20 21 22 25 28 29 28
9 11 14 16 17 18 23 27 25 19 20 19 19 18 17 16 15 14 9 5 6 8 10 14 16 17 17 15 14 15 17 20 19 19 18 19 19 20 22 23 25 29 31
12 14 17 20 21 23 25 24 21 21 23 21 18 20 21 18 16 16 10 12 15 16 17 17 15 16 21 20 19 18 20 22 21 19 20 21 22 22 22 25 25 24 30
17 20 23 24 26 26 26 24 23 23 22 20 24 31 33 27 23 20 17 18 20 21 19 21 25 23 21 22 22 20 19 17 14 15 19 21 20 21 24 27 27 31 32
20 23 25 27 28 27 27 26 25 25 25 26 27 28 23 20 19 19 20 23 21 20 19 20 19 20 22 24 24 22 22 22 26 29 30 29 29 28 26 26 27 27 32
26 29 30 30 30 30 29 28 29 29 27 28 27 25 23 23 21 18 17 19 20 21 23 23 23 25 24 24 24 24 25 27 29 28 29 31 30 26 26 24 23 25 28
30 30 28 27 27 29 29 31 26 24 25 25 24 23 22 22 22 19 18 20 22 23 25 26 27 28 28 27 27 28 29 28 27 26 27 28 27 25 25 25 22 24 28
23 23 24 24 25 27 28 29 32 28 23 20 19 20 22 23 24 23 18 19 20 21 20 18 20 22 23 24 24 26 27 27 27 27 26 27 27 26 24 25 22 25 28
20 20 22 23 24 25 26 26 25 26 28 27 22 20 21 22 20 17 17 17 20 21 21 21 20 20 21 21 21 21 21 22 23 23 23 25 24 25 25 24 24 26 29
21 21 22 22 23 23 23 24 24 25 26 28 30 26 23 17 16 16 17 19 21 22 24 25 25 23 22 22 21 20 20 22 24 25 25 26 24 22 23 23 24 25 26
22 22 22 23 23 23 24 25 26 26 26 26 26 25 22 22 20 21 22 23 24 25 29 30 31 31 29 27 26 25 25 24 24 23 23 22 23 22 23 24 23 24 25
23 24 24 23 23 23 23 25 25 24 23 25 26 26 26 27 28 27 27 26 28 29 30 28 24 23 23 24 26 27 27 26 25 24 24 24 23 24 24 25 24 23 26
27 28 29 28 25 24 24 23 23 24 26 27 27 26 27 28 25 26 28 30 30 25 23 20 20 19 20 22 24 26 28 28 26 26 25 23 22 23 23 25 26 24 26
27 29 29 30 31 30 29 27 26 26 26 26 26 24 22 23 24 25 26 25 25 25 24 21 21 18 21 23 25 24 25 28 27 27 27 25 23 23 24 26 27 29 29
27 30 30 30 31 33 33 31 28 27 27 28 27 26 26 27 28 28 29 31 30 30 29 27 27 28 30 30 26 26 23 26 28 30 28 27 28 28 29 28 27 28 28
27 30 31 31 31 33 36 35 30 28 28 29 29 29 28 28 27 26 26 26 27 28 27 27 29 32 34 34 32 31 29 30 30 28 29 31 32 30 30 29 28 27 26
26 28 30 30 30 32 36 35 34 31 29 29 29 29 31 32 32 30 27 26 25 25 27 28 29 27 27 29 29 30 31 30 30 29 28 31 31 30 30 29 28 27 26
Wind_Direction
350 359 354 358 351 356 359 346 343 357 3 7 359 336 232 216 234 267 270 262 257 256 261 271 258 251 261 259 259 260 258 256 263 284 283 292 296 289 254 252 241 242 234
296 333 345 342 349 7 18 23 15 355 333 318 320 328 210 215 244 271 283 286 267 257 255 273 272 257 258 254 255 253 259 258 253 270 275 284 292 274 251 244 244 241 245
3 355 5 19 29 30 28 21 19 17 12 1 323 272 258 247 247 285 288 305 301 280 258 257 258 258 253 248 250 252 249 248 256 264 274 277 276 268 255 254 238 238 250
32 24 19 21 20 20 21 18 12 10 8 16 13 314 279 261 263 262 275 276 289 313 243 250 254 257 257 253 252 255 248 243 249 255 260 264 268 268 259 257 242 247 252
62 39 31 25 21 14 13 12 14 9 6 3 359 345 296 282 275 272 272 268 262 275 275 269 269 268 269 263 256 252 246 254 249 250 248 256 259 260 262 262 261 255 258
14 4 1 350 342 341 344 350 352 354 359 1 353 344 339 324 321 329 306 281 258 257 257 260 263 264 261 260 259 253 251 248 246 245 247 252 257 258 265 257 256 262 264
319 334 305 296 298 297 309 322 329 335 337 336 330 327 322 311 304 306 310 297 273 262 263 266 263 256 252 251 260 264 261 253 253 255 253 253 258 259 265 258 256 253 253
265 275 275 280 288 283 302 316 320 322 321 318 314 310 307 302 295 294 293 289 280 274 273 273 272 267 248 250 254 254 253 254 256 254 255 261 258 253 259 257 257 253 249
267 280 280 287 292 309 320 315 322 326 320 316 314 314 313 306 301 302 293 281 277 276 270 270 277 270 260 255 256 258 259 261 262 257 259 261 261 255 253 248 249 252 248
281 278 285 302 313 324 321 320 324 327 322 320 319 312 308 311 297 300 306 286 286 287 273 271 276 281 278 271 264 266 267 274 267 260 264 270 267 256 254 252 250 251 251
281 289 306 317 319 321 316 313 316 316 318 315 314 316 311 296 296 306 303 295 309 305 287 269 269 267 271 278 279 278 278 275 272 273 273 271 268 266 265 267 251 248 249
282 291 296 300 304 308 310 312 312 314 319 317 311 312 310 302 299 296 282 277 292 295 300 292 294 278 265 264 271 279 285 282 275 271 275 278 277 272 272 273 272 265 256
287 288 292 295 299 301 300 300 301 304 310 305 303 309 311 307 291 279 286 282 281 281 280 289 291 289 280 271 272 275 281 269 269 280 288 290 290 289 279 272 269 258 256
288 291 294 297 298 296 294 296 294 293 293 295 302 310 304 304 309 302 279 276 280 282 275 270 273 276 279 273 267 265 271 270 274 281 286 287 285 287 284 281 278 274 259
300 301 301 300 300 300 298 298 293 288 291 295 299 300 298 297 303 302 289 282 270 271 272 272 269 266 270 274 274 277 278 277 277 282 286 285 282 278 277 281 276 269 255
305 306 308 308 307 307 306 302 296 293 292 288 289 290 288 290 293 296 287 280 277 275 273 271 270 268 268 270 272 276 275 273 276 283 289 288 279 273 277 283 269 269 255
314 313 313 313 313 314 315 310 305 301 302 303 296 290 288 294 293 293 281 281 278 277 280 281 273 270 270 272 275 274 275 273 274 274 279 283 280 270 271 275 265 263 266
319 316 316 318 321 322 325 324 322 318 316 311 295 294 296 296 297 284 284 286 282 285 284 285 283 281 278 277 277 277 274 273 275 275 275 280 282 274 266 264 267 261 263
329 328 326 322 321 328 329 329 327 321 315 314 310 306 311 302 298 289 288 289 294 294 293 288 287 286 281 279 279 275 274 274 273 274 274 276 270 275 262 259 268 257 258
359 353 345 340 336 333 330 328 325 321 321 321 321 320 325 320 307 295 295 300 299 302 302 293 286 286 283 279 276 278 277 274 273 271 272 276 268 269 260 255 268 259 255
8 8 4 3 354 347 337 329 327 324 314 309 304 301 301 302 305 304 302 300 299 298 295 291 287 288 286 284 278 273 274 273 271 268 273 271 268 267 260 250 261 265 256
21 18 15 11 4 357 349 343 334 327 321 312 306 302 301 300 301 301 300 302 298 295 291 292 298 292 291 291 286 283 278 271 267 267 267 266 268 270 264 256 254 261 258
12 11 10 14 12 7 2 358 354 347 337 326 316 312 309 301 298 296 294 292 287 286 288 288 295 296 297 294 295 288 278 270 268 271 266 262 262 267 265 260 258 258 255
12 12 12 11 10 9 6 360 355 353 351 349 345 338 327 315 307 300 295 294 293 288 285 284 286 289 289 286 283 291 286 276 273 271 263 255 260 269 258 258 260 257 254
10 10 9 9 9 7 5 3 1 357 354 353 354 352 348 341 332 320 309 301 296 293 288 283 281 281 282 282 278 270 273 272 273 269 265 260 264 263 254 254 258 252 249
7 5 5 5 6 8 8 9 6 3 358 356 355 357 359 357 350 339 326 312 302 295 292 290 293 295 290 285 280 274 272 269 263 259 253 253 255 251 246 252 257 247 250